Mullan Pass, ID

3:55 AM PDT on September 26, 2017 (GMT -0700)
Mullan Pass

Weather History for KMLP - October, 2012

Change the Weather History Date:

Tuesday, October 30, 2012

  Actual Average (K3TH) Record (K3TH)
Temperature  
Mean Temperature 40 °F -  
Max Temperature 45 °F 47 °F 60 °F (1999)
Min Temperature 37 °F 32 °F 10 °F (2002)
Degree Days  
Heating Degree Days 24    
Moisture  
Dew Point 39 °F    
Average Humidity 98    
Maximum Humidity 100    
Minimum Humidity 82    
Precipitation  
Precipitation 0.40 in - - ()
Sea Level Pressure  
Sea Level Pressure 29.96 in    
Wind  
Wind Speed 7 mph (SSW)    
Max Wind Speed 13 mph    
Max Gust Speed 28 mph    
Visibility 4 miles    
Events Fog , Rain    
Averages and records for this station are not official NWS values.
T = Trace of Precipitation, MM = Missing Value Source: NWS Daily Summary

Daily Weather History Graph

Daily Weather History Graph

Search for Another Location

Airport or City:

Trip Planner

Search our weather history database for the weather conditions in past years. The results will help you decide how hot, cold, wet, or windy it might be!

Date:

Astronomy

Oct. 30, 2012 Rise Set
Actual Time 7:24 AM PDT 5:27 PM PDT
Civil Twilight 6:52 AM PDT 5:59 PM PDT
Nautical Twilight 6:16 AM PDT 6:35 PM PDT
Astronomical Twilight 5:40 AM PDT 7:11 PM PDT
Moon 5:53 PM PDT (10/30) 8:20 AM PDT (10/30)
Length of Visible Light 11h 07m
Length of Day
10h 03m
Full, 99% of the Moon is Illuminated
Oct 30
Full
Nov 6
Last Quarter
Nov 13
New
Nov 20
First Quarter
Nov 28
Full

Hourly Weather History & Observations

Time (PDT) Temp. Windchill Dew Point Humidity Pressure Visibility Wind Dir Wind Speed Gust Speed Precip Events Conditions
12:06 AM 37.4 °F 32.8 °F 37.4 °F 100% 30.08 in 10.0 mi Variable 5.8 mph 18.4 mph N/A   Mostly Cloudy
12:53 AM 37.9 °F 34.4 °F 37.0 °F 97% 29.94 in 10.0 mi Variable 4.6 mph - N/A   Overcast
1:53 AM 37.0 °F 31.0 °F 36.0 °F 96% 29.95 in 10.0 mi SW 8.1 mph - N/A   Overcast
2:23 AM 37.4 °F 31.4 °F 35.6 °F 93% 30.08 in 10.0 mi SW 8.1 mph 19.6 mph N/A   Overcast
2:53 AM 37.9 °F 30.0 °F 36.0 °F 93% 29.94 in 10.0 mi SW 12.7 mph 20.7 mph N/A   Scattered Clouds
2:59 AM 37.4 °F 30.8 °F 35.6 °F 93% 30.07 in 10.0 mi SW 9.2 mph 20.7 mph N/A   Mostly Cloudy
3:37 AM 37.4 °F 31.4 °F 37.4 °F 100% 30.07 in 10.0 mi WSW 8.1 mph 18.4 mph N/A   Overcast
4:53 AM 37.9 °F 31.5 °F 37.0 °F 97% 29.94 in 10.0 mi SW 9.2 mph - N/A   Overcast
5:09 AM 37.4 °F 30.8 °F 37.4 °F 100% 30.06 in 10.0 mi SSW 9.2 mph 17.3 mph N/A   Overcast
5:53 AM 37.9 °F 32.7 °F 37.0 °F 97% 29.94 in 10.0 mi SW 6.9 mph 16.1 mph 0.00 in   Overcast
6:53 AM 37.9 °F 34.4 °F 36.0 °F 93% 29.91 in 10.0 mi SSW 4.6 mph - N/A   Mostly Cloudy
7:13 AM 37.4 °F 34.9 °F 37.4 °F 100% 30.03 in 7.0 mi South 3.5 mph - N/A   Mostly Cloudy
7:21 AM 37.4 °F 33.8 °F 37.4 °F 100% 30.03 in 1.8 mi South 4.6 mph - N/A   Overcast
7:24 AM 37.4 °F 33.8 °F 37.4 °F 100% 30.03 in 1.2 mi South 4.6 mph - N/A   Overcast
7:36 AM 37.4 °F 32.8 °F 37.4 °F 100% 30.03 in 0.5 mi South 5.8 mph - N/A Fog Fog
7:53 AM 37.0 °F 31.6 °F 37.0 °F 100% 29.91 in 1.0 mi South 6.9 mph - N/A   Overcast
8:07 AM 37.4 °F 32.1 °F 37.4 °F 100% 30.02 in 0.8 mi SSE 6.9 mph - N/A   Overcast
8:22 AM 37.4 °F 32.1 °F 37.4 °F 100% 30.02 in 1.5 mi Variable 6.9 mph - N/A   Overcast
8:27 AM 37.4 °F 32.8 °F 37.4 °F 100% 30.02 in 3.0 mi Variable 5.8 mph - N/A   Overcast
8:53 AM 37.9 °F 34.4 °F 37.9 °F 100% 29.88 in 6.0 mi Variable 4.6 mph - N/A   Overcast
9:53 AM 37.9 °F 34.4 °F 37.9 °F 100% 29.88 in 10.0 mi Variable 4.6 mph - N/A   Overcast
10:53 AM 41.0 °F 35.2 °F 37.9 °F 89% 29.87 in 10.0 mi South 9.2 mph 27.6 mph N/A   Overcast
11:53 AM 44.1 °F 40.8 °F 39.9 °F 85% 29.86 in 10.0 mi Variable 5.8 mph - N/A   Overcast
12:53 PM 42.1 °F 37.1 °F 39.0 °F 89% 29.86 in 10.0 mi SSW 8.1 mph - N/A   Overcast
1:53 PM 44.1 °F 38.6 °F 39.0 °F 82% 29.84 in 10.0 mi SSW 10.4 mph 18.4 mph 0.00 in   Mostly Cloudy
2:53 PM 42.1 °F 36.6 °F 39.9 °F 92% 29.86 in 8.0 mi SW 9.2 mph 26.5 mph 0.02 in Rain Light Rain
3:04 PM 41.0 °F 35.8 °F 39.2 °F 93% 29.99 in 7.0 mi SSW 8.1 mph 16.1 mph 0.00 in Rain Light Rain
3:31 PM 41.0 °F 37.1 °F 39.2 °F 93% 29.98 in 10.0 mi Variable 5.8 mph - 0.00 in Rain Light Rain
3:53 PM 41.0 °F 37.1 °F 39.9 °F 96% 29.85 in 9.0 mi Variable 5.8 mph - 0.01 in Rain Light Rain
4:03 PM 41.0 °F 37.1 °F 39.2 °F 93% 29.98 in 9.0 mi SSW 5.8 mph - 0.01 in Rain Light Rain
4:46 PM 39.2 °F 35.0 °F 39.2 °F 100% 29.98 in 5.0 mi Variable 5.8 mph 16.1 mph 0.04 in Rain Light Rain
4:53 PM 41.0 °F 35.8 °F 39.9 °F 96% 29.85 in 5.0 mi SW 8.1 mph 20.7 mph 0.05 in Rain Light Rain
5:28 PM 39.2 °F 33.6 °F 39.2 °F 100% 29.98 in 6.0 mi SW 8.1 mph 16.1 mph 0.05 in Rain Light Rain
5:42 PM 39.2 °F 34.2 °F 39.2 °F 100% 29.98 in 1.5 mi Variable 6.9 mph - 0.06 in Rain Light Rain
5:45 PM 39.2 °F 33.6 °F 39.2 °F 100% 29.98 in 1.2 mi SSW 8.1 mph - 0.06 in Rain Light Rain
5:48 PM 39.2 °F 34.2 °F 39.2 °F 100% 29.98 in 1.2 mi Variable 6.9 mph - 0.07 in Rain Light Rain
5:53 PM 39.9 °F 35.1 °F 39.9 °F 100% 29.85 in 2.0 mi Variable 6.9 mph - 0.07 in Rain Light Rain
5:58 PM 39.2 °F 34.2 °F 39.2 °F 100% 29.98 in 1.8 mi SSW 6.9 mph - 0.01 in Rain Light Rain
6:04 PM 39.2 °F 35.0 °F 39.2 °F 100% 29.98 in 0.8 mi Variable 5.8 mph - 0.02 in Rain Light Rain
6:19 PM 39.2 °F 35.0 °F 39.2 °F 100% 29.98 in 1.2 mi Variable 5.8 mph - 0.03 in Rain Light Rain
6:26 PM 39.2 °F 35.9 °F 39.2 °F 100% 29.98 in 1.5 mi SSW 4.6 mph - 0.03 in Rain Light Rain
6:42 PM 39.2 °F 35.9 °F 39.2 °F 100% 29.99 in 2.0 mi Variable 4.6 mph - 0.05 in Rain Light Rain
6:48 PM 39.2 °F 32.0 °F 39.2 °F 100% 29.99 in 4.0 mi SW 11.5 mph 23.0 mph 0.05 in Rain Light Rain
6:53 PM 41.0 °F 37.1 °F 39.9 °F 96% 29.85 in 7.0 mi Variable 5.8 mph 23.0 mph 0.05 in Rain Light Rain
7:02 PM 39.2 °F 34.2 °F 39.2 °F 100% 29.99 in 2.5 mi SSW 6.9 mph - 0.01 in Rain Light Rain
7:09 PM 39.2 °F 35.0 °F 39.2 °F 100% 29.99 in 1.2 mi Variable 5.8 mph - 0.02 in Rain Light Rain
7:33 PM 39.2 °F 34.2 °F 39.2 °F 100% 29.98 in 0.5 mi Variable 6.9 mph - 0.05 in Fog , Rain Light Rain
7:41 PM 39.2 °F 35.0 °F 39.2 °F 100% 29.98 in 0.2 mi Variable 5.8 mph - 0.05 in Fog , Rain Light Rain
7:53 PM 39.9 °F 35.1 °F 39.9 °F 100% 29.85 in 0.5 mi Variable 6.9 mph - 0.06 in Fog , Rain Light Rain
8:04 PM 39.2 °F 34.2 °F 39.2 °F 100% 29.98 in 0.2 mi Variable 6.9 mph - 0.02 in Fog , Rain Light Rain
8:12 PM 39.2 °F 34.2 °F 39.2 °F 100% 29.98 in 0.5 mi SSW 6.9 mph - 0.02 in Fog , Rain Light Rain
8:38 PM 41.0 °F 35.8 °F 41.0 °F 100% 29.99 in 1.2 mi SSW 8.1 mph 20.7 mph 0.04 in Rain Light Rain
8:53 PM 41.0 °F 35.8 °F 41.0 °F 100% 29.85 in 1.2 mi SSW 8.1 mph 20.7 mph 0.05 in Rain Light Rain
9:09 PM 41.0 °F 36.4 °F 41.0 °F 100% 29.99 in 0.5 mi Variable 6.9 mph - 0.02 in Fog , Rain Rain
9:31 PM 41.0 °F 34.7 °F 41.0 °F 100% 30.00 in 1.2 mi SSW 10.4 mph 19.6 mph 0.04 in Rain Light Rain
9:33 PM 41.0 °F 34.7 °F 41.0 °F 100% 30.00 in 2.0 mi SW 10.4 mph 19.6 mph 0.04 in Rain Light Rain
9:37 PM 41.0 °F 35.8 °F 41.0 °F 100% 30.00 in 1.2 mi SW 8.1 mph 19.6 mph 0.05 in Rain Light Rain
9:45 PM 41.0 °F 35.8 °F 41.0 °F 100% 30.00 in 0.8 mi SW 8.1 mph 23.0 mph 0.05 in Rain Light Rain
9:48 PM 41.0 °F 35.2 °F 41.0 °F 100% 30.00 in 1.5 mi SW 9.2 mph 18.4 mph 0.05 in Rain Light Rain
9:53 PM 41.0 °F 34.7 °F 41.0 °F 100% 29.87 in 1.5 mi SW 10.4 mph 19.6 mph 0.06 in Rain Light Rain
10:01 PM 41.0 °F 36.4 °F 41.0 °F 100% 30.01 in 4.0 mi Variable 6.9 mph 19.6 mph 0.00 in Rain Light Rain
10:33 PM 42.8 °F 38.0 °F 42.8 °F 100% 30.00 in 1.5 mi SW 8.1 mph - 0.02 in Rain Light Rain
10:36 PM 42.8 °F 39.3 °F 42.8 °F 100% 30.00 in 0.8 mi Variable 5.8 mph - 0.02 in Rain Light Rain
10:45 PM 42.8 °F 41.1 °F 42.8 °F 100% 30.00 in 1.5 mi Variable 3.5 mph - 0.02 in Rain Light Rain
10:49 PM 42.8 °F 40.1 °F 42.8 °F 100% 30.00 in 0.8 mi Variable 4.6 mph - 0.02 in   Mist
10:53 PM 41.0 °F 37.1 °F 41.0 °F 100% 29.86 in 0.8 mi Variable 5.8 mph - 0.02 in   Mist
10:59 PM 41.0 °F 35.8 °F 41.0 °F 100% 30.00 in 1.0 mi WNW 8.1 mph - 0.00 in Rain Light Rain
11:01 PM 41.0 °F 38.0 °F 41.0 °F 100% 30.01 in 1.5 mi Variable 4.6 mph - 0.00 in Rain Light Rain
11:08 PM 41.0 °F 35.8 °F 41.0 °F 100% 30.01 in 3.0 mi WSW 8.1 mph - 0.00 in Rain Light Rain
11:19 PM 41.0 °F 36.4 °F 41.0 °F 100% 30.00 in 10.0 mi SW 6.9 mph - 0.00 in Rain Light Rain
11:53 PM 41.0 °F 36.4 °F 41.0 °F 100% 29.88 in 10.0 mi SW 6.9 mph - 0.01 in   Overcast